Погода в Боруджерде

Иран     33°53′48″N   48°45′21″E
В апреле 2022 года жителям России запретили посещать сайт meteo.paraplan.net по решению Генеральной прокуратуры. Аудитория сайта уменьшилась в 10 раз. Владельцы сайта не видят смысла в поддержке погодного сервера в таких условиях. Сайт будет закрыт в октябре.
темп.,
°C
ветер,
м/с
пор.,
м/с
влажн.,
%
обл.,
%
осадки,
мм/ч
давл.,
гПа
погр.,
м
25 сентября, вс
вс2500:30+16юз11230 0.0 101411
03:30+14юв11220 0.0 101311
06:30+14ююв11240 0.0 101411
09:30+24ююв23140 0.0 1013624
12:30+29ююз6780 0.0 10092975
15:30+29ююз6670 0.0 10083063
18:30+22ююз33110 0.0 101116
21:30+18зюз22140 0.0 101312
26 сентября, пн
пн2600:30+16вюв11160 0.0 101311
03:30+14юв11190 0.0 101211
06:30+14ссв22200 0.0 101411
09:30+23св12140 0.0 1014673
12:30+29ю5980 0.0 10112841
15:30+30ююз9950 0.0 10093703
18:30+22ююз44110 0.0 101237
21:30+17ю01150 0.0 101311
27 сентября, вт
вт2700:30+16юв22190 0.0 101412
03:30+14юв22270 0.0 101311
06:30+14ююв22330 0.0 101412
09:30+23ююв34190 0.0 1013543
12:30+29ююз81070 0.0 10103108
15:30+28ююз101070 0.0 10093090
18:30+20юз45110 0.0 101151
21:30+16ююз22140 0.0 101312
28 сентября, ср
ср2800:30+15ю22150 0.0 101312
03:30+13ююв22180 0.0 101311
06:30+12юв11210 0.0 101311
09:30+22ююв23120 0.0 1012535
12:30+27ю5780 0.0 10092535
15:30+27ююз7760 0.0 10072907
18:30+20юз33110 0.0 100913
21:30+16сз11150 0.0 101111
29 сентября, чт
чт2900:30+14сз11160 0.0 101111
03:30+13ссз11170 0.0 101111
06:30+13ссв11190 0.0 101211
09:30+23ююв2290 0.0 1011541
12:30+28ююв3380 0.0 10082036
15:30+29юв3470 0.0 10063185
18:30+20з22120 0.0 100812
21:30+18зсз22130 0.0 101112